[Date Prev][Date Next][Thread Prev][Thread Next][Date Index][Thread Index]
[jamsat-news:1098] jas2info #140
========================   ºÇ¿·¾ðÊó   ==============================
        Last updated ¡§Mon.31-May.-1999 18:00 (JST) #140
====================================================================
   
     ±ÒÀ±¾ðÊ󡡣ƣϥ·¥ê¡¼¥º¤Îµ°Æ»Í×ÁÇ¡¢¥Æ¥ì¥á¥È¥ê¡¢£Ñ£Ó£Ï¤Î¾õ¶·Åù¤ò
   ¤Þ¤È¤á¤Æ¤ß¤Þ¤·¤¿¡¥
  1¡Ë  £Æ£Ï¡Ý£²£¹¡Ê¤Õ¤¸£³¹æ¡Ë¤Ï¡¢£µ·î£³£±Æü¡Ê·î¡Ë£±£³¡§£´£¶¡Ê£Ê£Ó£Ô¡Ë¤Î
     ¥Ñ¥¹¤Ç¤Ï£Ê£Á£Ò£Ì¤Î¥Û¡¼¥à¥Ú¡¼¥¸¤Î£Ê£Á£Ó¡Ý£²¡ÖºÇ¿·¾ðÊó¡×¤Î¤È¤¦¤ê
     £Ê£Á¥¢¥Ê¥í¥°¥â¡¼¥É¤«¤é£±£´¡§55¡ÊJST¡Ë¤Ë£Ê£Ä¥Ç¥£¥¸¥¿¥ë¥â¡¼¥É¤ËÀÚ¤ê
¡¡¡¡ ÂØ¤¨¤é¤ì¤Ç±¿ÍѤµ¤ì¤Æ¤¤¤Þ¤·¤¿¡¥ 
       
 ¢£ µ°Æ»Í×ÁÇ£±¡§¡Öjamsat¡Ýkeps¡§£¸£¹£±¡×¤è¤ê
              SB KEPS @ AMSAT  $ORB99148.N
¡¡¡¡¡¡¡¡¡¡¡¡¡¡2Line Orbital Elements 99148.AMSAT
¡¡¡¡HR AMSAT ORBITAL ELEMENTS FOR AMATEUR SATELLITES IN NASA FORMAT
¡¡¡¡FROM WA5QGD FORT WORTH,TX May 28, 1999
¡¡¡¡SEND SUBSCRIBE/UNSUBSCRIBE TO majordomo@amsat.org ONLY
¡¡¡¡BID: ORB99148.N
¡¡¡¡
 DECODE 2-LINE ELSETS WITH THE FOLLOWING KEY:
 1 AAAAAU 00  0  0 BBBBB.BBBBBBBB  .CCCCCCCC  00000-0  00000-0 0  DDDZ
 2 AAAAA EEE.EEEE FFF.FFFF GGGGGGG HHH.HHHH III.IIII JJ.JJJJJJJJKKKKKZ
 KEY: A-CATALOGNUM B-EPOCHTIME C-DECAY D-ELSETNUM E-INCLINATION F-RAAN
 G-ECCENTRICITY H-ARGPERIGEE I-MNANOM J-MNMOTION K-ORBITNUM Z-CHECKSUM
 TO ALL RADIO AMATEURS BT
  FO-29
¡¡¡¡1 24278U 96046B   99145.94660274 -.00000006  00000-0  28252-4 0 02784
¡¡¡¡2 24278 098.5600 100.0671 0351865 151.6487 210.4291 13.52667765136803
 ¢£ µ°Æ»Í×ÁÇ£²¡§¡Öjamsat¡Ýkeps¡§£¸£¹£±¡×¤è¤ê        (No.892 ?)
                 SB KEPS @ AMSAT  $ORB99148.O
¡¡¡¡¡¡¡¡¡¡¡¡¡¡¡¡¡¡Orbital Elements  99148.OSCAR
¡¡¡¡HR AMSAT ORBITAL ELEMENTS FOR OSCAR SATELLITES
¡¡¡¡FROM WA5QGD FORT WORTH,TX May 28, 1999
¡¡¡¡SEND SUBSCRIBE/UNSUBSCRIBE TO majordomo@amsat.org ONLY
¡¡¡¡BID: ORB99148.O
¡¡¡¡TO ALL RADIO AMATEURS BT
  Satellite: FO-29
¡¡¡¡Catalog number: 24278
¡¡¡¡Epoch time:      99145.94660274
¡¡¡¡Element set:    0278
¡¡¡¡Inclination:      098.5600 deg
¡¡¡¡RA of node:       100.0671 deg
¡¡¡¡Eccentricity:    0.0351865
¡¡¡¡Arg of perigee:   151.6487 deg
¡¡¡¡Mean anomaly:     210.4291 deg
¡¡¡¡Mean motion:   13.52667765 rev/day
¡¡¡¡Decay rate:       -6.0e-08 rev/day^2
¡¡¡¡Epoch rev:           13680
¡¡¡¡Checksum:              324
 -----------------------------------------------------------
  £²)£Æ£Ï¡Ý£²£¹¡Ê¤Õ¤¸£³¹æ¡Ë¤Î £µ·î£³£±Æü¡Ê·î¡Ë¤Î£±£³¡§£´£¶¡Ý£±£³¡§£µ£µ¡Ê£Ê£Ó£Ô¡Ë¤Î
     ¥Ñ¥¹¤Ç¤Ï£Ê£Á¥¢¥Ê¥í¥°¥â¡¼¥É¤Î¥Æ¥ì¥á¥È¥ê¤Ç£±£´¡§£µ£¶¡Ê£Ê£Ó£Ô¡Ë¤è¤ê£Ê£Ä¥Ç¥£¥¸¥¿¥ë
¡¡¡¡¥â¡¼¥É¤Ç±¿ÍѤµ¤ì¥Æ¥ì¥á¥È¥ê¤Î°ìÉôʬ¤Ï¼¡¤Î¤è¤¦¤Ë¤Ê¤Ã¤Æ¤¤¤Þ¤·¤¿¡¥
¡¡¡¡AS13725P   31May99
$B!!!!JST 15:36 - 15:49
¡¡c
md:8J1JCS>BEACON [05/31/99  15:38:53]:
¡¡JAS-2    '97/05/31 06:35:33
¡¡9C 03 63 08 00 29 00 00 00 00
¡¡00 00 63 0E D8 91 60 93 91 B0
¡¡AA 52 A8 02 E6 B6 BA BA B8 B9
$B!!8J1JCS>BEACON [05/31/99  15:38:54]:95 02 00 09 00 00 3D 40 00 00
¡¡F1 D2 E5 28 7C 9B A0 82 7B 7F
¡¡00 00 00 AC 83 B3 F7 00 00 00
                                     
¡¡8J1JCS>BEACON [05/31/99  15:38:55]:
¡¡User not connect.
                                                                                                             
¡¡8J1JCS>BEACON [05/31/99  15:38:57]:
¡¡Total    1 File(s)
¡¡ No.  Date  UTC    To    From   Size   Subject
¡¡0001 05/22 04:22 ALL    JN1GKZ      75 hello
               
¡¡8J1JCS>BEACON [05/31/99  15:40:53]:
¡¡JAS-2    '97/05/31 06:37:33
¡¡9C 03 63 08 00 29 00 00 00 00
¡¡00 00 63 0F 14 97 60 94 91 B0
¡¡AA 52 A8 01 E6 B6 BA BA B7 B9
         
¡¡8J1JCS>BEACON [05/31/99  15:40:54]:95 02 00 09 00 00 3D 40 00 00
¡¡3C D3 DE 33 7B 9F A4 82 7B 7F
¡¡00 00 00 AC 83 B3 F7 00 00 00
                                      
¡¡8J1JCS>BEACON [05/31/99  15:40:55]:
¡¡User not connect.
                                                                                                           
¡¡8J1JCS>BEACON [05/31/99  15:40:57]:
¡¡Total    1 File(s)
 ¡¡No.  Date  UTC    To    From   Size   Subject
¡¡0001 05/22 04:22 ALL    JN1GKZ      75 hello
               
$B!!8J1JCS>BEACON [05/31/99  15:42:53]:
¡¡JAS-2    '97/05/31 06:39:33
¡¡9C 03 03 08 00 29 00 00 00 00
¡¡00 00 63 0F 50 95 41 94 91 9E
¡¡AA 52 A8 02 B7 B6 BA BA B7 B8
         
¡¡8J1JCS>BEACON [05/31/99  15:42:54]:95 02 00 09 00 00 3D 40 00 00
¡¡65 D3 E1 4A 6A A1 A5 82 7B 80
¡¡00 00 00 AB 83 B3 F7 00 00 00
                                      
¡¡8J1JCS>BEACON [05/31/99  15:42:55]:
¡¡User not connect.
                                                                                                             
¡¡8J1JCS>BEACON [05/31/99  15:42:57]:
¡¡Total    1 File(s)
¡¡ No.  Date  UTC    To    From   Size   Subject
¡¡0001 05/22 04:22 ALL    JN1GKZ      75 hello
               
¡¡8J1JCS>BEACON [05/31/99  15:44:53]:
¡¡JAS-2    '97/05/31 06:41:33
¡¡9C 03 63 08 00 29 00 00 00 00
¡¡00 00 63 0F 8C 85 60 93 90 B0
¡¡AA 52 A8 01 E6 B6 BA B9 B7 B8
         
¡¡8J1JCS>BEACON [05/31/99  15:44:54]:95 02 00 09 00 00 3D 40 00 00
¡¡48 D3 E3 63 66 A0 A5 83 7B 81
¡¡00 00 00 AB 83 B3 F7 00 00 00
                                      
¡¡8J1JCS>BEACON [05/31/99  15:44:55]:
¡¡User not connect.
                                                                                                             
¡¡8J1JCS>BEACON [05/31/99  15:44:57]:
¡¡Total    1 File(s)
¡¡ No.  Date  UTC    To    From   Size   Subject
¡¡0001 05/22 04:22 ALL    JN1GKZ      75 hello
               
¡¡8J1JCS>BEACON [05/31/99  15:46:53]:
¡¡JAS-2    '97/05/31 06:43:33
¡¡9C 03 63 08 00 29 00 00 00 00
¡¡00 00 63 0F C8 8D 60 94 91 B0
¡¡AA 52 A8 02 CC B6 B9 B9 B6 B8
         
¡¡8J1JCS>BEACON [05/31/99  15:46:54]:95 02 00 09 00 00 3D 40 00 00
¡¡F6 D2 F5 7A 23 9D A2 83 7C 81
¡¡00 00 00 AA 83 B3 F7 00 00 00
                                      
¡¡8J1JCS>BEACON [05/31/99  15:46:55]:
¡¡User not connect.
                                                                                                             
¡¡8J1JCS>BEACON [05/31/99  15:46:57]:
¡¡Total    1 File(s)
 ¡¡No.  Date  UTC    To    From   Size   Subject
¡¡0001 05/22 04:22 ALL    JN1GKZ      75 hello
             
¡¡¡¡AS13751CP  31May99
¡¡¡¡JST 13:47 - 13:54
¡¡¡¡Freq.435.805 - .796 MODE CW
¡¡¡¡cwe:K
         ¡¡                                                      B9 BA BA B6 
¡¡HI HI AE C7 88 55 02 27 FF 0D 00 16 75 4B 7B 60 94 91 A0 65 BB B9 BA BA B6 
¡¡HI HI AE C7 88 55 07 27 FF 0D 00 16 7F 46 7A 5F 94 91 A0 84 BB B9 BA BA B6 
¡¡HI HI AE C7 88 55 0C 27 FF 0D 00 16 58 48 80 60 92 91 A0 90 BB B9 BA BA B6 
¡¡HI HI AE C7 88 55 11 27 FF 0D 00 16 4D 48 82 60 93 90 9E 89 BB B8 BA BA B6 
¡¡HI HI AE C7 88 55 16 27 FF 0D 00 16 65 46 7F 60 94 91 B0 6F BB B8 BA BA B6 
¡¡HI HI AE C7 88 55 1B 27 FF 0D 00 16 7A 41 7A 49 96 92 B0 79 BB B8 BA BA B7 
¡¡HI HI AE C7 88 55 00 27 FF 0D 00 16 70 3A 83 60 93 90 B0 7A BA B8 BA BA B6 
¡¡HI HI AE C7 88 55 06 27 1E 0D 00 16 5A 3A 88 40 94 91 65 7F BA B8 BA BA B7 
¡¡HI HI AE C7 88 55 15 27 FF 0D 00 16 88 40 84 56 93 91 9E 87 BA B8 BA BA B6 
¡¡JST 13:55 - 14:04
¡¡Freq.435.909 - .901 MODE JAS
¡¡
¡¡cwe:MODE JAS
¡¡MODE     was CWE
¡¡cmd:8J1JCS>BEACON [05/31/99  13:56:36]:
¡¡9C 03 63 08 00 29 00 00 00 00
¡¡00 00 63 02 DA 8B 5F 93 90 B0
¡¡AA 52 A8 01 A1 B7 BA B8 B9 B9
¡¡8J1JCS>BEACON [05/31/99  13:56:37]:D5 02 00 09 00 00 3C 40 00 00
¡¡C9 D2 E7 3B 75 9C A1 84 7B 81
¡¡00 00 00 B1 83 B3 F7 00 00 00
¡¡8J1JCS>BEACON [05/31/99  13:56:43]:9C 03 63 08 00 29 00 00 00 00
¡¡00 00 63 02 DF 88 60 93 90 B0
¡¡AA 52 A8 01 E3 B7 BA B8 B9 B9
¡¡8J1JCS>BEACON [05/31/99  13:56:45]:95 02 00 09 00 00 3C 40 00 00
¡¡C9 D2 CB 3B 75 9C A1 83 7B 80
¡¡00 00 00 B1 83 B3 F7 00 00 00
¡¡8J1JCS>BEACON [05/31/99  13:56:52]:
¡¡JAS-2    '97/05/31 04:53:33
¡¡9C 03 03 08 00 29 00 00 00 00
¡¡00 00 63 02 E4 83 48 95 92 A0
¡¡AA 52 A8 02 CE B6 BA B7 B9 B9
¡¡8J1JCS>BEACON [05/31/99  13:56:53]:95 02 00 09 00 00 3C 40 00 00
¡¡C9 D2 ED 46 75 9B A0 83 7B 80
¡¡00 00 00 B1 83 B3 F7 00 00 00
¡¡8J1JCS>BEACON [05/31/99  13:56:54]:
¡¡User not connect.
¡¡8J1JCS>BEACON [05/31/99  13:56:55]:
¡¡Total    1 File(s)
¡¡ No.  Date  UTC    To    From   Size   Subject
¡¡0001 05/22 04:22 ALL    JN1GKZ      75 hello
¡¡8J1JCS>BEACON [05/31/99  13:57:11]:9C 03 63 08 00 29 00 00 00 00
¡¡00 00 63 02 EE 77 60 93 90 B0
¡¡AA 52 A8 02 CA B7 BA B8 B9 B9
¡¡8J1JCS>BEACON [05/31/99  13:57:12]:95 02 00 09 00 00 3C 40 00 00
¡¡C9 D2 ED 46 75 9B A0 83 7B 80
¡¡00 00 00 B1 84 B3 F7 00 00 00
¡¡8J1JCS>BEACON [05/31/99  13:57:13]:9C 03 63 08 00 29 00 00 00 00
¡¡00 00 63 02 EE 76 60 93 90 B0
¡¡AA 52 AA 02 B8 B7 BA B8 B9 B9
¡¡8J1JCS>BEACON [05/31/99  13:57:15]:95 02 00 09 00 00 3C 40 00 00
¡¡C9 D2 ED 46 75 9B A0 83 7B 80
¡¡00 00 00 B1 84 B3 F7 00 00 00
¡¡8J1JCS>BEACON [05/31/99  13:58:52]:
¡¡JAS-2    '97/05/31 04:55:33
¡¡9C 03 63 08 00 29 00 00 00 00
¡¡00 00 63 03 20 7D 60 93 90 B0
¡¡AA 52 A8 01 CB B7 BA B8 B8 B9
¡¡8J1JCS>BEACON [05/31/99  13:58:53]:95 02 00 09 00 00 3C 40 00 00
¡¡EB D2 F8 5E 75 9C A0 83 7C 80
¡¡00 00 00 AF 83 B3 F7 00 00 00
¡¡8J1JCS>BEACON [05/31/99  13:58:54]:
¡¡User not connect.
¡¡8J1JCS>BEACON [05/31/99  13:58:55]:
¡¡Total    1 File(s)
¡¡ No.  Date  UTC    To    From   Size   Subject
¡¡0001 05/22 04:22 ALL    JN1GKZ      75 hello
¡¡8J1JCS>BEACON [05/31/99  14:00:52]:
¡¡JAS-2    '97/05/31 04:57:33
¡¡9C 03 63 08 00 29 00 00 00 00
¡¡00 00 63 03 5C 88 60 94 91 B0
¡¡AA 52 A8 01 E5 B6 B9 B7 B8 B9
¡¡8J1JCS>BEACON [05/31/99  14:00:53]:95 02 00 09 00 00 3C 40 00 00
¡¡30 D3 04 74 7D 9E A3 84 7C 81
¡¡00 00 00 AE 84 B3 F7 00 00 00
¡¡8J1JCS>BEACON [05/31/99  14:00:54]:
¡¡User not connect.
¡¡8J1JCS>BEACON [05/31/99  14:00:55]:
¡¡Total    1 File(s)
¡¡ No.  Date  UTC    To    From   Size   Subject
¡¡0001 05/22 04:22 ALL    JN1GKZ      75 hello
     
